TimeCDT,TemperatureF,Dew PointF,Humidity,Sea Level PressureIn,VisibilityMPH,Wind Direction,Wind SpeedMPH,Gust SpeedMPH,PrecipitationIn,Events,Conditions,WindDirDegrees,DateUTC
12:53 AM,57.9,54.0,87,30.09,10.0,North,6.9,-,N/A,,Overcast,350,2012-10-07 05:53:00
1:03 AM,57.2,53.6,88,30.09,10.0,North,8.1,-,N/A,,Overcast,350,2012-10-07 06:03:00
1:12 AM,57.2,53.6,88,30.09,10.0,North,6.9,-,N/A,,Overcast,350,2012-10-07 06:12:00
1:20 AM,57.2,53.6,88,30.08,10.0,North,6.9,-,N/A,,Overcast,360,2012-10-07 06:20:00
1:32 AM,57.2,53.6,88,30.08,10.0,North,10.4,-,N/A,,Mostly Cloudy,10,2012-10-07 06:32:00
1:53 AM,57.0,48.9,74,30.09,10.0,NNE,11.5,-,N/A,,Mostly Cloudy,20,2012-10-07 06:53:00
2:53 AM,57.0,48.9,74,30.07,10.0,NNE,6.9,-,N/A,,Overcast,20,2012-10-07 07:53:00
3:53 AM,55.9,48.9,77,30.08,10.0,North,6.9,-,N/A,,Overcast,350,2012-10-07 08:53:00
4:45 AM,53.6,46.4,77,30.08,10.0,North,9.2,-,N/A,,Overcast,350,2012-10-07 09:45:00
4:53 AM,54.0,46.9,77,30.08,10.0,North,9.2,-,N/A,,Overcast,360,2012-10-07 09:53:00
5:53 AM,53.1,46.0,77,30.11,10.0,North,9.2,-,N/A,,Mostly Cloudy,350,2012-10-07 10:53:00
6:53 AM,52.0,46.9,83,30.13,10.0,North,9.2,-,N/A,,Overcast,350,2012-10-07 11:53:00
7:53 AM,52.0,45.0,77,30.16,10.0,North,8.1,-,N/A,,Overcast,360,2012-10-07 12:53:00
8:41 AM,53.6,44.6,72,30.18,10.0,NNW,8.1,-,N/A,,Overcast,340,2012-10-07 13:41:00
8:53 AM,53.1,45.0,74,30.17,10.0,North,11.5,-,N/A,,Overcast,350,2012-10-07 13:53:00
9:53 AM,57.9,46.0,65,30.18,10.0,North,9.2,-,N/A,,Partly Cloudy,10,2012-10-07 14:53:00
10:53 AM,57.0,46.0,67,30.19,10.0,North,11.5,-,N/A,,Overcast,350,2012-10-07 15:53:00
11:53 AM,59.0,45.0,60,30.19,10.0,North,10.4,-,N/A,,Overcast,360,2012-10-07 16:53:00
12:53 PM,61.0,45.0,56,30.17,10.0,NNE,12.7,-,N/A,,Clear,20,2012-10-07 17:53:00
1:53 PM,61.0,45.0,56,30.14,10.0,North,13.8,-,N/A,,Mostly Cloudy,360,2012-10-07 18:53:00
2:53 PM,61.0,44.1,54,30.12,10.0,North,13.8,18.4,N/A,,Clear,10,2012-10-07 19:53:00
3:53 PM,61.0,44.1,54,30.10,10.0,NNE,9.2,17.3,N/A,,Clear,20,2012-10-07 20:53:00
4:53 PM,60.1,45.0,57,30.11,10.0,North,9.2,-,N/A,,Clear,360,2012-10-07 21:53:00
5:53 PM,59.0,43.0,55,30.12,10.0,North,9.2,-,N/A,,Clear,350,2012-10-07 22:53:00
6:53 PM,55.9,45.0,67,30.13,10.0,North,4.6,-,N/A,,Clear,350,2012-10-07 23:53:00
7:53 PM,55.0,46.9,74,30.14,10.0,Calm,Calm,-,N/A,,Clear,0,2012-10-08 00:53:00
8:53 PM,54.0,46.9,77,30.14,10.0,Calm,Calm,-,N/A,,Clear,0,2012-10-08 01:53:00
9:53 PM,53.1,48.0,83,30.14,10.0,Calm,Calm,-,N/A,,Clear,0,2012-10-08 02:53:00
10:53 PM,53.1,46.9,80,30.15,10.0,Calm,Calm,-,N/A,,Clear,0,2012-10-08 03:53:00
11:53 PM,52.0,46.9,83,30.14,10.0,Calm,Calm,-,N/A,,Clear,0,2012-10-08 04:53:00